| time (UTC) | temp F | wind direction | speed MPH | gust MPH | rain 1hr in | rain 24hr in | rain mn in | humidity % | barometer mb |
| 20260509071540 | 51 | 192 | 0.0 | 4.0 | 0.00 | 0.00 | 0.00 | 32 | 1007.6 |
| 20260509070036 | 50 | 190 | 0.0 | 7.0 | 0.00 | 0.00 | 0.00 | 32 | 1007.5 |
| 20260509064541 | 50 | 188 | 0.0 | 5.0 | 0.00 | 0.00 | 0.00 | 33 | 1007.6 |
| 20260509063031 | 51 | 123 | 0.0 | 6.0 | 0.00 | 0.00 | 0.00 | 30 | 1007.7 |
| 20260509061531 | 51 | 162 | 1.0 | 6.0 | 0.00 | 0.00 | 0.00 | 30 | 1007.9 |
| 20260509060033 | 53 | 186 | 1.0 | 7.0 | 0.00 | 0.00 | 0.00 | 28 | 1008.1 |
| 20260509054529 | 50 | 87 | 0.0 | 5.0 | 0.00 | 0.00 | 0.00 | 35 | 1008.1 |
| 20260509053024 | 51 | 126 | 0.0 | 4.0 | 0.00 | 0.00 | 0.00 | 37 | 1008.1 |
| 20260509051523 | 50 | 182 | 0.0 | 4.0 | 0.00 | 0.00 | 0.00 | 42 | 1008.0 |
| 20260509050023 | 51 | 182 | 0.0 | 5.0 | 0.00 | 0.00 | 0.00 | 40 | 1007.9 |
| 20260509044522 | 51 | 178 | 0.0 | 1.0 | 0.00 | 0.00 | 0.00 | 43 | 1007.7 |
| 20260509043022 | 55 | 243 | 0.0 | 5.0 | 0.00 | 0.00 | 0.00 | 35 | 1007.6 |
| 20260509041531 | 55 | 172 | 0.0 | 3.0 | 0.00 | 0.00 | 0.00 | 36 | 1007.5 |
| 20260509040020 | 54 | 177 | 2.0 | 9.0 | 0.00 | 0.00 | 0.00 | 40 | 1007.8 |
| 20260509034520 | 52 | 192 | 0.0 | 5.0 | 0.00 | 0.00 | 0.00 | 44 | 1007.8 |
| 20260509033020 | 52 | 192 | 0.0 | 0.0 | 0.00 | 0.00 | 0.00 | 45 | 1007.5 |
| 20260509031526 | 52 | 198 | 0.0 | 6.0 | 0.00 | 0.00 | 0.00 | 46 | 1007.1 |
| 20260509030021 | 52 | 202 | 4.0 | 6.0 | 0.00 | 0.00 | 0.00 | 47 | 1006.8 |
| 20260509024519 | 53 | 204 | 0.0 | 0.0 | 0.00 | 0.00 | 0.00 | 47 | 1006.7 |
| 20260509023023 | 54 | 222 | 0.0 | 0.0 | 0.00 | 0.00 | 0.00 | 48 | 1006.6 |
| 20260509021518 | 56 | 243 | 0.0 | 0.0 | 0.00 | 0.00 | 0.00 | 44 | 1006.5 |
| 20260509020027 | 58 | 272 | 4.0 | 10.0 | 0.00 | 0.00 | 0.00 | 38 | 1006.3 |
| 20260509014519 | 59 | 270 | 4.0 | 7.0 | 0.00 | 0.00 | 0.00 | 39 | 1006.4 |
| 20260509013032 | 61 | 283 | 0.0 | 7.0 | 0.00 | 0.00 | 0.00 | 37 | 1006.4 |
| 20260509011516 | 61 | 267 | 0.0 | 7.0 | 0.00 | 0.00 | 0.00 | 35 | 1006.4 |
| 20260509010016 | 63 | 292 | 1.0 | 12.0 | 0.00 | 0.00 | 0.00 | 31 | 1006.4 |
| 20260509004518 | 64 | 263 | 11.0 | 19.0 | 0.00 | 0.00 | 0.00 | 28 | 1006.3 |
| 20260509003015 | 65 | 289 | 11.0 | 19.0 | 0.00 | 0.00 | 0.00 | 28 | 1006.4 |
| 20260509001514 | 65 | 271 | 14.0 | 19.0 | 0.00 | 0.00 | 0.00 | 29 | 1006.3 |
| 20260509000013 | 66 | 290 | 10.0 | 17.0 | 0.00 | 0.00 | 0.00 | 30 | 1006.2 |
| 20260508234513 | 67 | 267 | 12.0 | 19.0 | 0.00 | 0.00 | 0.00 | 30 | 1006.2 |
| 20260508233014 | 68 | 280 | 14.0 | 17.0 | 0.00 | 0.00 | 0.00 | 29 | 1006.0 |
| 20260508231510 | 66 | 263 | 9.0 | 19.0 | 0.00 | 0.00 | 0.00 | 30 | 1005.9 |
| 20260508230010 | 67 | 261 | 14.0 | 22.0 | 0.00 | 0.00 | 0.00 | 29 | 1005.9 |
| 20260508224517 | 66 | 294 | 10.0 | 20.0 | 0.00 | 0.00 | 0.00 | 29 | 1005.9 |
| 20260508223008 | 66 | 276 | 12.0 | 18.0 | 0.00 | 0.00 | 0.00 | 28 | 1006.1 |
| 20260508221507 | 67 | 311 | 8.0 | 19.0 | 0.00 | 0.00 | 0.00 | 30 | 1006.4 |
| 20260508220005 | 67 | 313 | 0.0 | 12.0 | 0.00 | 0.00 | 0.00 | 29 | 1006.5 |
| 20260508214516 | 66 | 276 | 14.0 | 18.0 | 0.00 | 0.00 | 0.00 | 31 | 1006.6 |
| 20260508213004 | 67 | 289 | 8.0 | 16.0 | 0.00 | 0.00 | 0.00 | 29 | 1006.6 |
| 20260508211505 | 67 | 241 | 8.0 | 19.0 | 0.00 | 0.00 | 0.00 | 30 | 1006.8 |
| 20260508210100 | 67 | 286 | 2.0 | 15.0 | 0.00 | 0.00 | 0.00 | 30 | 1007.0 |
| 20260508204601 | 67 | 246 | 12.0 | 19.0 | 0.00 | 0.00 | 0.00 | 31 | 1007.0 |
| 20260508203056 | 64 | 304 | 0.0 | 9.0 | 0.00 | 0.00 | 0.00 | 34 | 1007.2 |
| 20260508201554 | 64 | 266 | 4.0 | 14.0 | 0.00 | 0.00 | 0.00 | 32 | 1007.3 |
| 20260508200109 | 66 | 290 | 0.0 | 2.0 | 0.00 | 0.00 | 0.00 | 32 | 1007.4 |
| 20260508194552 | 65 | 67 | 0.0 | 1.0 | 0.00 | 0.00 | 0.00 | 33 | 1007.4 |
| 20260508193129 | 64 | 17 | 0.0 | 11.0 | 0.00 | 0.00 | 0.00 | 31 | 1007.6 |
| 20260508191549 | 64 | 279 | 0.0 | 0.0 | 0.00 | 0.00 | 0.00 | 32 | 1007.8 |
| 20260508190053 | 64 | 76 | 0.0 | 8.0 | 0.00 | 0.00 | 0.00 | 32 | 1007.9 |
| 20260508184549 | 64 | 107 | 5.0 | 9.0 | 0.00 | 0.00 | 0.00 | 33 | 1008.0 |
| 20260508183107 | 63 | 33 | 0.0 | 7.0 | 0.00 | 0.00 | 0.00 | 33 | 1008.4 |
| 20260508181601 | 64 | 80 | 0.0 | 7.0 | 0.00 | 0.00 | 0.00 | 34 | 1008.5 |
| 20260508180043 | 63 | 298 | 0.0 | 1.0 | 0.00 | 0.00 | 0.00 | 32 | 1008.6 |
| 20260508174541 | 63 | 26 | 0.0 | 0.0 | 0.00 | 0.00 | 0.00 | 34 | 1008.7 |
| 20260508173038 | 61 | 349 | 0.0 | 0.0 | 0.00 | 0.00 | 0.00 | 36 | 1008.9 |
| 20260508171535 | 61 | 13 | 0.0 | 0.0 | 0.00 | 0.00 | 0.00 | 37 | 1009.0 |
| 20260508170034 | 60 | 297 | 0.0 | 0.0 | 0.00 | 0.00 | 0.00 | 36 | 1009.1 |
| 20260508164531 | 59 | 67 | 0.0 | 4.0 | 0.00 | 0.00 | 0.00 | 38 | 1009.2 |
| 20260508163028 | 57 | 319 | 0.0 | 0.0 | 0.00 | 0.00 | 0.00 | 43 | 1009.4 |
| 20260508161525 | 56 | 318 | 0.0 | 0.0 | 0.00 | 0.00 | 0.00 | 42 | 1009.4 |
| 20260508160021 | 55 | 319 | 0.0 | 0.0 | 0.00 | 0.00 | 0.00 | 44 | 1009.6 |
| 20260508154539 | 53 | 240 | 0.0 | 0.0 | 0.00 | 0.00 | 0.00 | 47 | 1009.6 |
| 20260508153014 | 52 | 240 | 0.0 | 1.0 | 0.00 | 0.00 | 0.00 | 49 | 1009.8 |
| 20260508151513 | 50 | 240 | 0.0 | 0.0 | 0.00 | 0.00 | 0.00 | 52 | 1009.9 |
| 20260508150005 | 48 | 200 | 0.0 | 0.0 | 0.00 | 0.00 | 0.00 | 54 | 1009.9 |
| 20260508144505 | 48 | 199 | 0.0 | 0.0 | 0.00 | 0.00 | 0.00 | 59 | 1009.9 |
| 20260508143106 | 46 | 198 | 0.0 | 0.0 | 0.00 | 0.00 | 0.00 | 65 | 1009.9 |
| 20260508141605 | 44 | 198 | 0.0 | 0.0 | 0.00 | 0.00 | 0.00 | 69 | 1010.0 |
| 20260508140055 | 42 | 198 | 0.0 | 0.0 | 0.00 | 0.00 | 0.00 | 71 | 1009.9 |
| 20260508134612 | 40 | 198 | 0.0 | 0.0 | 0.00 | 0.00 | 0.00 | 73 | 1010.0 |
| 20260508133056 | 38 | 198 | 0.0 | 0.0 | 0.00 | 0.00 | 0.00 | 74 | 1010.0 |
| 20260508131548 | 37 | 198 | 0.0 | 0.0 | 0.00 | 0.00 | 0.00 | 72 | 1010.0 |
| 20260508130042 | 37 | 198 | 0.0 | 0.0 | 0.00 | 0.00 | 0.00 | 71 | 1009.7 |
| 20260508124540 | 37 | 198 | 0.0 | 0.0 | 0.00 | 0.00 | 0.00 | 70 | 1009.4 |
| 20260508123047 | 38 | 198 | 0.0 | 1.0 | 0.00 | 0.00 | 0.00 | 69 | 1009.1 |
| 20260508121537 | 38 | 198 | 0.0 | 4.0 | 0.00 | 0.00 | 0.00 | 68 | 1009.0 |
| 20260508120037 | 38 | 198 | 0.0 | 1.0 | 0.00 | 0.00 | 0.00 | 68 | 1008.9 |
| 20260508114533 | 37 | 198 | 0.0 | 0.0 | 0.00 | 0.00 | 0.00 | 68 | 1008.7 |
| 20260508113030 | 38 | 198 | 0.0 | 2.0 | 0.00 | 0.00 | 0.00 | 67 | 1008.7 |
| 20260508111534 | 39 | 198 | 0.0 | 4.0 | 0.00 | 0.00 | 0.00 | 64 | 1008.7 |
| 20260508110027 | 39 | 198 | 0.0 | 2.0 | 0.00 | 0.00 | 0.00 | 63 | 1008.5 |
| 20260508104525 | 39 | 198 | 0.0 | 1.0 | 0.00 | 0.00 | 0.00 | 64 | 1008.4 |
| 20260508103028 | 40 | 198 | 0.0 | 1.0 | 0.00 | 0.00 | 0.00 | 64 | 1008.4 |
| 20260508101523 | 39 | 198 | 0.0 | 0.0 | 0.00 | 0.00 | 0.00 | 65 | 1008.4 |
| 20260508100022 | 39 | 198 | 0.0 | 1.0 | 0.00 | 0.00 | 0.00 | 65 | 1008.2 |
| 20260508094518 | 40 | 198 | 0.0 | 4.0 | 0.00 | 0.00 | 0.00 | 62 | 1008.2 |
| 20260508093019 | 41 | 198 | 0.0 | 5.0 | 0.00 | 0.00 | 0.00 | 60 | 1008.1 |
| 20260508091516 | 41 | 198 | 0.0 | 5.0 | 0.00 | 0.00 | 0.00 | 61 | 1008.2 |
| 20260508090028 | 41 | 198 | 0.0 | 5.0 | 0.00 | 0.00 | 0.00 | 61 | 1008.0 |
| 20260508084512 | 41 | 198 | 0.0 | 3.0 | 0.00 | 0.00 | 0.00 | 60 | 1007.9 |
| 20260508083010 | 42 | 198 | 0.0 | 5.0 | 0.00 | 0.00 | 0.00 | 59 | 1008.0 |
| 20260508081508 | 42 | 198 | 0.0 | 0.0 | 0.00 | 0.00 | 0.00 | 59 | 1008.0 |
| 20260508080007 | 43 | 198 | 0.0 | 4.0 | 0.00 | 0.00 | 0.00 | 57 | 1007.8 |
| 20260508074506 | 43 | 198 | 0.0 | 2.0 | 0.00 | 0.00 | 0.00 | 56 | 1007.8 |
| 20260508073003 | 44 | 193 | 0.0 | 3.0 | 0.00 | 0.00 | 0.00 | 55 | 1007.8 |